{"data":{"norad_id":49289,"epoch":"2026-05-25T03:12:57.988800Z","epoch_age_seconds":60118,"freshness":"FRESH","line1":"1 49289U 21090L   26145.13400450 -.00010514  00000+0 -25958-1 0  9991","line2":"2 49289  87.9176 279.0358 0002128  97.5448 262.5927 13.20676927227261","mean_motion":13.20676927,"eccentricity":0.0002128,"inclination_deg":87.9176,"raan_deg":279.0358,"arg_perigee_deg":97.5448,"mean_anomaly_deg":262.5927,"bstar":-0.025958,"rev_number":22726,"period_min":109.03499338563,"perigee_km":1180.5266441711,"apogee_km":1183.7442961344,"semimajor_km":7560.2724701528,"source":"CELESTRAK","updated_at":"2026-05-25T13:38:22.521236Z"}}